Location: Bambrugge
(50.9212°N, 3.9299°E)
Time: 02:19:38
(UTC+00:00)

Cosmos 1300 - Pass Details

Date: 23 May 2024
Orbit: 465 x 467 km, 82.5° (Epoch: 21 June)

Event Time Altitude Azimuth Distance (km) Brightness Sun altitude
Rises 00:55:58 0° 341° (NNW) 2,520 7.1 -16.6°
Reaches altitude 10° 00:58:13 10° 330° (NNW) 1,637 5.8 -16.4°
Maximum altitude 01:01:21 29° 269° (W) 885 3.7 -16.3°
Enters shadow 01:02:03 27° 246° (WSW) 937 3.6 -16.2°
